Waarnemingen

Advertentie
Mijn weer
Koksijde, België (6400): temperatuur & dauwpunt: 03.04.2020 13:00:00 - 09.04.2020 13:00:00 (CEST)Koksijde, België (6400): windsnelheid & windstoten: 03.04.2020 13:00:00 - 09.04.2020 13:00:00 (CEST)Koksijde, België (6400): windrichting: 03.04.2020 13:00:00 - 09.04.2020 13:00:00 (CEST)Koksijde, België (6400): luchtdruk: 03.04.2020 13:00:00 - 09.04.2020 13:00:00 (CEST)Koksijde, België (6400): zicht: 03.04.2020 13:00:00 - 09.04.2020 13:00:00 (CEST)
Datum & Tijd tt [°C] td [°C] ff [km/u] ff [kn] fx [km/u] fx [kn] dd ppp [hPa] vv [km]
09.04.2020 13:00:00 20,1 8,5 16 9 22 12 O 1025,7 3,5
09.04.2020 12:00:00 18,9 8,1 14 8 29 16 O 1025,9 14
09.04.2020 11:00:00 17,1 8,4 14 8 - - O 1025,7 7
09.04.2020 10:00:00 14,9 9,0 11 6 18 10 ONO 1025,7 4,3
09.04.2020 09:00:00 12,3 8,4 11 6 14 8 ONO 1025,2 3,3
09.04.2020 08:00:00 8,8 6,8 7 4 - - NO 1024,7 2,1
09.04.2020 07:00:00 8,7 7,3 7 4 11 6 NO 1024,2 1,7
09.04.2020 06:00:00 8,5 7,4 11 6 11 6 NO 1024,0 1,6
09.04.2020 05:00:00 7,2 6,7 7 4 - - NO 1023,8 1,1
09.04.2020 04:00:00 8,0 7,2 5 3 7 4 N 1023,8 0,7
09.04.2020 03:00:00 7,6 6,6 7 4 7 4 N 1024,0 1,2
09.04.2020 02:00:00 7,9 6,4 4 2 - - - 1024,0 1,8
09.04.2020 01:00:00 8,0 5,8 4 2 7 4 N 1024,2 2,1
09.04.2020 00:00:00 9,1 6,9 7 4 11 6 NNO 1024,0 2,3
08.04.2020 23:00:00 10,0 6,7 7 4 - - NO 1024,0 3,3
08.04.2020 22:00:00 10,6 7,1 7 4 14 8 NO 1023,8 4,0
08.04.2020 21:00:00 11,0 7,2 11 6 22 12 NO 1023,7 4,4
08.04.2020 20:00:00 12,5 7,8 18 10 - - NNO 1023,5 4,6
08.04.2020 19:00:00 14,1 8,4 18 10 22 12 NNO 1023,3 4,7
08.04.2020 18:00:00 16,3 9,3 14 8 18 10 NNO 1023,2 4,8
08.04.2020 17:00:00 18,0 9,9 11 6 - - N 1023,2 4,4
08.04.2020 16:00:00 18,0 9,8 11 6 22 12 NNO 1023,7 4,1
08.04.2020 15:00:00 17,0 9,6 18 10 25 14 NNO 1024,2 4,2
08.04.2020 14:00:00 17,8 9,5 14 8 - - NNO 1024,5 5
08.04.2020 13:00:00 16,9 9,3 11 6 18 10 N 1024,7 4,2
08.04.2020 12:00:00 17,7 10,1 7 4 11 6 N 1025,0 6
08.04.2020 11:00:00 17,1 9,7 4 2 - - N 1025,0 4,2
08.04.2020 10:00:00 14,6 9,1 4 2 7 4 N 1025,0 4,2
08.04.2020 09:00:00 11,6 8,6 4 2 7 4 N 1025,4 3,9
08.04.2020 08:00:00 8,3 6,4 4 2 - - N 1025,0 3,7
08.04.2020 07:00:00 9,0 6,6 4 2 4 2 N 1025,0 4,1
08.04.2020 06:00:00 9,5 6,6 5 3 7 4 ONO 1025,0 4,9
08.04.2020 05:00:00 10,8 7,1 4 2 - - N 1025,2 7
08.04.2020 04:00:00 11,6 7,2 4 2 11 6 N 1025,7 8
08.04.2020 03:00:00 11,8 7,0 7 4 11 6 ONO 1026,2 8
08.04.2020 02:00:00 11,6 7,0 8 4 - - ONO 1026,7 7
08.04.2020 01:00:00 11,4 6,5 7 4 11 6 NO 1027,0 9
08.04.2020 00:00:00 11,3 6,0 7 4 11 6 NO 1027,2 10
07.04.2020 23:00:00 11,8 6,1 11 6 - - NO 1027,4 9
07.04.2020 22:00:00 12,0 6,1 7 4 11 6 NO 1027,7 12
07.04.2020 21:00:00 12,3 6,6 7 4 14 8 NO 1027,4 12
07.04.2020 20:00:00 14,7 7,3 11 6 - - NO 1027,2 14
07.04.2020 19:00:00 17,2 8,4 11 6 18 10 NNO 1027,7 16
07.04.2020 18:00:00 18,2 7,6 14 8 22 12 NNO 1028,0 16
07.04.2020 17:00:00 19,5 5,8 4 2 - - N 1028,5 18
07.04.2020 16:00:00 19,5 5,7 7 4 22 12 OZO 1028,9 18
07.04.2020 15:00:00 19,1 5,9 14 8 29 16 O 1029,5 18
07.04.2020 14:00:00 18,1 5,6 14 8 - - OZO 1030,2 18
07.04.2020 13:00:00 17,7 6,7 18 10 25 14 OZO 1030,7 16
07.04.2020 12:00:00 16,1 8,0 7 4 14 8 O 1031,2 14
07.04.2020 11:00:00 13,0 7,8 5 3 - - OZO 1031,2 10
07.04.2020 10:00:00 10,4 7,3 4 2 7 4 N 1031,2 6
07.04.2020 09:00:00 6,6 5,7 2 1 7 4 - 1031,0 7
07.04.2020 08:00:00 3,1 2,8 4 2 - - - 1030,5 4,7
07.04.2020 07:00:00 1,9 1,5 4 2 4 2 N 1029,9 7
07.04.2020 06:00:00 3,4 3,3 2 1 4 2 - 1029,5 5
07.04.2020 05:00:00 4,0 3,3 4 2 - - N 1029,0 6
07.04.2020 04:00:00 5,0 4,3 4 2 4 2 N 1028,7 6
07.04.2020 03:00:00 5,3 4,4 4 2 7 4 - 1028,4 7
07.04.2020 02:00:00 5,5 4,4 7 4 - - N 1028,0 9
07.04.2020 01:00:00 6,3 4,9 7 4 11 6 ZW 1027,5 9
07.04.2020 00:00:00 7,1 5,4 11 6 14 8 ZW 1026,7 9
06.04.2020 23:00:00 7,7 5,5 11 6 - - ZZW 1026,5 13
06.04.2020 22:00:00 9,0 6,1 11 6 14 8 ZW 1025,9 14
06.04.2020 21:00:00 11,5 7,7 11 6 14 8 W 1025,0 18
06.04.2020 20:00:00 11,8 8,0 11 6 - - W 1023,7 11
06.04.2020 19:00:00 15,0 8,6 18 10 32 18 WZW 1022,7 15
06.04.2020 18:00:00 14,4 9,4 25 14 32 18 ZW 1022,0 20
06.04.2020 17:00:00 13,4 10,7 22 12 - - ZZW 1021,3 9
06.04.2020 16:00:00 13,0 11,0 22 12 - - ZZW - 8
06.04.2020 15:00:00 12,9 9,5 16 9 25 14 ZW 1020,7 10
06.04.2020 14:00:00 13,9 6,1 18 10 - - ZW 1019,7 15
06.04.2020 13:00:00 15,1 4,8 25 14 32 18 ZZW 1018,5 20
06.04.2020 12:00:00 - - - - - - - - -
06.04.2020 11:00:00 14,8 4,7 14 8 - - ZZW 1017,0 20
06.04.2020 10:00:00 14,5 4,2 14 8 22 12 Z 1015,8 20
06.04.2020 09:00:00 11,2 3,6 11 6 18 10 Z 1015,3 15
06.04.2020 08:00:00 8,8 2,7 4 2 - - N 1014,8 15
06.04.2020 07:00:00 9,0 2,2 7 4 14 8 ZZO 1014,1 15
06.04.2020 06:00:00 9,6 2,4 7 4 14 8 ZZO 1013,8 18
06.04.2020 05:00:00 9,7 2,8 4 2 - - N 1013,6 18
06.04.2020 04:00:00 10,7 2,8 14 8 22 12 ZZO 1013,7 16
06.04.2020 03:00:00 10,8 3,0 14 8 22 12 ZZO 1013,8 16
06.04.2020 02:00:00 12,5 2,8 18 10 - - ZZO 1013,7 16
06.04.2020 01:00:00 12,5 2,9 14 8 18 10 ZZO 1013,7 15
06.04.2020 00:00:00 12,4 2,8 11 6 18 10 ZO 1013,8 16
05.04.2020 23:00:00 14,5 2,9 14 8 - - ZZO 1014,0 17
05.04.2020 22:00:00 14,8 3,5 11 6 14 8 ZO 1014,2 18
05.04.2020 21:00:00 16,3 4,0 11 6 18 10 ZO 1014,2 16
05.04.2020 20:00:00 18,7 4,4 11 6 - - ZO 1014,2 16
05.04.2020 19:00:00 20,6 4,2 18 10 32 18 Z 1014,6 19
05.04.2020 18:00:00 20,9 2,5 22 12 36 19 Z 1014,7 11
05.04.2020 17:00:00 21,1 4,0 25 14 - - ZZO 1015,2 20
05.04.2020 16:00:00 21,1 3,7 25 14 40 21 Z 1015,7 18
05.04.2020 15:00:00 20,6 4,3 26 14 43 23 Z 1016,2 10
05.04.2020 14:00:00 19,4 4,8 26 14 - - ZZO 1016,8 10
05.04.2020 13:00:00 17,5 4,5 25 14 36 19 ZZO 1017,3 14
05.04.2020 12:00:00 15,5 3,9 26 14 32 18 ZZO 1018,2 7
05.04.2020 11:00:00 13,1 3,5 22 12 - - ZZO 1018,7 12
05.04.2020 10:00:00 10,1 2,1 18 10 25 14 ZO 1019,5 13
05.04.2020 09:00:00 7,1 1,7 7 4 14 8 OZO 1019,7 16
05.04.2020 08:00:00 3,0 0,5 7 4 - - O 1019,8 11
05.04.2020 07:00:00 2,2 0,0 7 4 14 8 O 1019,6 9
05.04.2020 06:00:00 2,2 0,0 11 6 14 8 O 1019,7 8
05.04.2020 05:00:00 3,0 0,4 8 4 - - O 1020,1 10
05.04.2020 04:00:00 3,7 0,7 7 4 11 6 O 1020,6 8
05.04.2020 03:00:00 4,7 1,1 7 4 11 6 O 1021,0 10
05.04.2020 02:00:00 5,4 1,6 7 4 - - O 1021,3 10
05.04.2020 01:00:00 6,0 1,9 7 4 14 8 O 1021,5 9
05.04.2020 00:00:00 6,5 2,3 7 4 14 8 OZO 1021,5 10
04.04.2020 23:00:00 7,5 2,5 7 4 - - OZO 1021,6 10
04.04.2020 22:00:00 8,4 2,9 7 4 11 6 OZO 1021,7 11
04.04.2020 21:00:00 9,8 3,4 7 4 11 6 OZO 1021,5 13
04.04.2020 20:00:00 13,8 3,1 11 6 - - ZO 1021,2 14
04.04.2020 19:00:00 15,6 2,6 14 8 22 12 ZO 1021,0 17
04.04.2020 18:00:00 15,5 2,7 14 8 22 12 ZO 1021,0 16
04.04.2020 17:00:00 15,8 3,2 14 8 - - ZO 1021,5 14
04.04.2020 16:00:00 15,4 4,0 11 6 22 12 Z 1021,8 20
04.04.2020 15:00:00 15,1 3,9 11 6 25 14 Z 1022,1 10
04.04.2020 14:00:00 14,8 4,0 11 6 - - Z 1022,5 20
04.04.2020 13:00:00 14,0 3,7 11 6 22 12 ZZO 1023,1 18
04.04.2020 12:00:00 13,0 3,5 11 6 22 12 ZZO 1023,3 15
04.04.2020 11:00:00 10,7 2,4 7 4 - - ZZO 1023,5 17
04.04.2020 10:00:00 8,6 0,9 7 4 11 6 ZZO 1023,1 10
04.04.2020 09:00:00 4,5 1,2 4 2 4 2 - 1023,1 7
04.04.2020 08:00:00 1,0 -0,9 4 2 - - N 1022,7 10
04.04.2020 07:00:00 1,1 -1,1 4 2 4 2 N 1022,2 12
04.04.2020 06:00:00 2,0 -1,0 4 2 4 2 N 1022,1 14
04.04.2020 05:00:00 2,4 -1,2 4 2 - - N 1021,8 13
04.04.2020 04:00:00 4,0 -1,0 4 2 7 4 N 1022,0 13
04.04.2020 03:00:00 4,3 -0,8 4 2 7 4 N 1021,7 13
04.04.2020 02:00:00 6,0 -1,1 7 4 - - Z 1021,6 15
04.04.2020 01:00:00 6,7 -1,2 4 2 11 6 N 1021,6 18
04.04.2020 00:00:00 5,7 -0,4 4 2 4 2 N 1021,2 16
03.04.2020 23:00:00 6,9 -1,1 4 2 - - N 1021,2 14
03.04.2020 22:00:00 8,1 -0,6 4 2 4 2 N 1021,1 18
03.04.2020 21:00:00 8,8 -0,4 4 2 4 2 N 1020,6 19
03.04.2020 20:00:00 9,3 -1,8 4 2 - - N 1020,2 20
03.04.2020 19:00:00 9,5 -3,0 4 2 4 2 N 1019,8 18
03.04.2020 18:00:00 9,5 -1,6 4 2 11 6 N 1019,7 19
03.04.2020 17:00:00 9,4 -3,3 7 4 - - N 1019,6 19
03.04.2020 16:00:00 9,6 -2,1 7 4 18 10 N 1019,6 15
03.04.2020 15:00:00 9,8 -0,6 7 4 11 6 N 1019,5 18
03.04.2020 14:00:00 8,6 1,5 4 2 - - N 1019,6 12
03.04.2020 13:00:00 8,4 1,5 11 6 22 12 NNW 1019,2 12

tt = temperatuur
td = dauwpunt
ff = windsnelheid
fx = windstoten
dd = windrichting
ppp = luchtdruk
vv = zicht

Weerstations in de omgeving